OSIRIS-3U (43027 NORAD) Tracking and Keplerian Element Data

This shows tracking and keplerian element data for the satellite.

Feedback or suggestion? Click here.




ElementValue
Catalog43027
NameOSIRIS-3U
Epoch Orbit7393
Epoch Day66.2182207
Epoch Year2019
RAAN93.2605
Inclination51.6122
Eccentricity1E-06
Argument of Perigee179.6888
Mean Anonmoly180.8884
Mean Motion16.46418237
Decay Rate0.27976699
L11 43027U 98067NL 19066.21822070 .27976699 12582-4 67924-3 0 9998
L22 43027 51.6122 93.2605 0000010 179.6888 180.8884 16.46418237 73939

Live tracking and technical data element details for OSIRIS-3U (NORAD 43027). OSIRIS-3U can be tracked NOW for your location showing map with azimuth and elevation plus other details from your city location.

Track the satellite on the map from your city or location and see movement details for azimuth, elevation, latitude, longitude, range, height, and movement on the map or in text.







IsCatalogInMostPopularTable: catalog: 43027, numindb: 299
Update: records affected: 1



GetName: 43027 OSIRIS-3U

Hit Count: updated at: Thu, 19 Sep 2019 16:44:51 GMT